time_stamp(utc),avg(mph),gust(mph),direction(deg),12m_air_temp(f),sonic_u(cm/s),sonic_v(cm/s),sonic_w(cm/s),pressure,2m_air_temp(f),pyranometer(W/m^2)
"2022-05-03 00:03:54+00",12.7,13.7,,,574,61,25,1016.52,55.1,0
"2022-05-03 00:08:54+00",11.5,12.5,,,513,6,44,1016.53,54.9,0
"2022-05-03 00:13:54+00",11.8,13.8,,,534,47,43,1016.57,54.7,0
"2022-05-03 00:18:54+00",11.3,12.3,,,504,70,41,1016.49,54.5,0
"2022-05-03 00:23:54+00",12.9,14.9,,,571,143,35,1016.41,54.2,0
"2022-05-03 00:28:54+00",11.8,12.8,,,529,80,47,1016.49,54.1,0
"2022-05-03 00:33:54+00",11.5,12.5,,,497,160,22,1016.59,54,0
"2022-05-03 00:38:54+00",10.6,12.6,,,448,180,24,1016.6,53.9,0
"2022-05-03 00:43:54+00",10.0,12.0,,,426,172,39,1016.7,53.8,0
"2022-05-03 00:48:54+00",11.0,13.0,,,468,194,18,1016.66,53.8,0
"2022-05-03 00:53:54+00",9.8,10.8,,,400,164,-14,1016.83,53.7,0
"2022-05-03 00:58:54+00",8.3,10.3,,,339,114,-24,1016.98,53.7,0
"2022-05-03 01:03:54+00",8.6,9.6,,,376,48,-4,1017.06,53.7,0
"2022-05-03 01:08:54+00",9.5,10.5,,,426,60,-14,1017.08,53.7,0
"2022-05-03 01:13:54+00",8.7,10.7,,,371,48,-22,1017.11,53.7,0
"2022-05-03 01:18:54+00",8.3,10.3,,,351,8,-41,1017.19,53.5,0
"2022-05-03 01:23:54+00",10.3,10.3,,,454,20,-29,1017.12,53.5,0
"2022-05-03 01:28:54+00",8.4,9.4,,,357,57,-5,1017.18,53.3,0
"2022-05-03 01:33:54+00",9.2,11.2,,,392,12,-22,1017.29,53.3,0
"2022-05-03 01:38:54+00",9.4,10.4,,,421,41,5,1017.19,53.2,0
"2022-05-03 01:43:54+00",8.7,9.7,,,384,35,-5,1017.38,53.1,0
"2022-05-03 01:48:54+00",8.2,9.2,,,350,58,-13,1017.38,53.1,0
"2022-05-03 01:53:54+00",9.6,11.6,,,403,93,-12,1017.38,53.1,0
"2022-05-03 01:58:54+00",9.3,10.3,,,407,89,13,1017.33,53,0
"2022-05-03 02:03:54+00",9.1,10.1,,,384,20,-31,1017.37,53,0
"2022-05-03 02:08:54+00",8.5,10.5,,,375,-48,-17,1017.59,52.9,0
"2022-05-03 02:13:54+00",8.0,9.0,,,350,19,-3,1017.57,52.9,0
"2022-05-03 02:18:54+00",9.2,10.2,,,388,48,-39,1017.55,52.8,0
"2022-05-03 02:23:54+00",8.4,9.4,,,368,15,-8,1017.59,52.7,0
"2022-05-03 02:28:54+00",7.1,8.1,,,296,37,-22,1017.72,52.6,0
"2022-05-03 02:33:54+00",9.6,10.6,,,395,119,-36,1017.62,52.5,0
"2022-05-03 02:38:54+00",8.6,9.6,,,360,104,-20,1017.56,52.4,0
"2022-05-03 02:43:54+00",6.5,7.5,,,271,28,-6,1017.49,52.4,0
"2022-05-03 02:48:54+00",8.8,9.8,,,385,40,-13,1017.46,52.4,0
"2022-05-03 02:53:54+00",9.4,10.4,,,399,140,-12,1017.38,52.4,0
"2022-05-03 02:58:54+00",9.1,10.1,,,392,95,-12,1017.6,52.3,0
"2022-05-03 03:03:54+00",7.1,8.1,,,303,28,-11,1017.56,52.3,0
"2022-05-03 03:08:54+00",7.8,9.8,,,339,53,-6,1017.56,52.3,0
"2022-05-03 03:13:54+00",6.6,7.6,,,279,45,2,1017.66,52.2,0
"2022-05-03 03:18:54+00",8.4,8.4,,,356,112,-11,1017.66,52.2,0
"2022-05-03 03:23:54+00",7.8,8.8,,,320,116,-10,1017.59,52.2,0
"2022-05-03 03:28:54+00",6.6,7.6,,,277,12,-22,1017.55,52.3,0
"2022-05-03 03:33:54+00",8.2,9.2,,,356,52,-18,1017.55,52.2,0
"2022-05-03 03:38:54+00",5.9,6.9,,,236,86,-15,1017.71,52.1,0
"2022-05-03 03:43:54+00",6.3,6.3,,,220,128,-43,1017.72,52,0
"2022-05-03 03:48:54+00",5.6,6.6,,,197,102,-41,1017.85,52,0
"2022-05-03 03:53:54+00",8.7,9.7,,,348,129,-40,1017.8,51.9,0
"2022-05-03 03:58:54+00",9.8,10.8,,,344,238,-42,1017.94,52,0
"2022-05-03 04:03:54+00",10.1,12.1,,,380,222,-24,1017.93,52.2,0
"2022-05-03 04:08:54+00",12.8,13.8,,,478,318,-23,1017.91,52.3,0
"2022-05-03 04:13:54+00",9.9,11.9,,,390,218,-13,1017.98,52.3,0
"2022-05-03 04:18:54+00",10.9,12.9,,,394,304,-9,1018.09,52.4,0
"2022-05-03 04:23:54+00",13.2,14.2,,,465,377,2,1018.04,52.4,0
"2022-05-03 04:28:54+00",12.9,14.9,,,439,387,-16,1018.05,52.4,0
"2022-05-03 04:33:54+00",12.8,14.8,,,456,343,0,1018.02,52.2,0
"2022-05-03 04:38:54+00",12.2,14.2,,,362,413,-1,1018.21,52.3,0
"2022-05-03 04:43:54+00",17.2,18.2,,,529,557,-13,1018.1,52.1,0
"2022-05-03 04:48:54+00",16.7,19.7,,,524,541,-12,1018.19,52.1,0
"2022-05-03 04:53:54+00",17.0,19.0,,,619,474,9,1018.32,52,0
"2022-05-03 04:58:54+00",15.7,18.7,,,433,534,-12,1018.25,52,0
"2022-05-03 05:03:54+00",15.3,17.3,,,474,496,-10,1018.19,51.9,0
"2022-05-03 05:08:54+00",14.0,18.0,,,266,563,-16,1018.2,52,0
"2022-05-03 05:13:54+00",19.7,22.7,,,470,730,-39,1018.25,52,0
"2022-05-03 05:18:54+00",16.4,18.4,,,441,545,5,1018.37,52.2,0
"2022-05-03 05:23:54+00",16.3,19.3,,,525,495,35,1018.27,52.4,0
"2022-05-03 05:28:54+00",15.9,17.9,,,442,522,18,1018.33,52.3,0
"2022-05-03 05:33:54+00",12.7,14.7,,,348,405,8,1018.39,52.4,0
"2022-05-03 05:38:54+00",12.8,15.8,,,402,390,24,1018.31,52.3,0
"2022-05-03 05:43:54+00",13.8,15.8,,,472,383,35,1018.42,52.4,0
"2022-05-03 05:48:54+00",9.5,12.5,,,363,206,28,1018.53,52.4,0
"2022-05-03 05:53:54+00",7.4,8.4,,,308,110,21,1018.58,52.3,0
"2022-05-03 05:58:54+00",9.8,10.8,,,429,79,27,1018.47,52.2,0
"2022-05-03 06:03:54+00",8.6,10.6,,,379,52,45,1018.48,52.2,0
"2022-05-03 06:08:54+00",9.5,10.5,,,433,-11,21,1018.46,52,0
"2022-05-03 06:13:54+00",9.5,11.5,,,421,55,28,1018.59,51.8,0
"2022-05-03 06:18:54+00",9.5,10.5,,,433,64,22,1018.47,51.7,0
"2022-05-03 06:23:54+00",8.7,9.7,,,375,102,21,1018.49,51.6,0
"2022-05-03 06:28:54+00",8.9,9.9,,,388,114,45,1018.43,51.4,0
"2022-05-03 06:33:54+00",10.3,11.3,,,449,113,23,1018.37,51.1,0
"2022-05-03 06:38:54+00",8.9,9.9,,,378,132,28,1018.32,50.9,0
"2022-05-03 06:43:54+00",8.2,9.2,,,351,141,26,1018.36,50.7,0
"2022-05-03 06:48:54+00",8.7,10.7,,,367,157,17,1018.41,50.6,0
"2022-05-03 06:53:54+00",7.7,8.7,,,327,109,19,1018.33,50.4,0
"2022-05-03 06:58:54+00",8.4,9.4,,,357,109,26,1018.35,50.4,0
"2022-05-03 07:03:54+00",7.1,8.1,,,311,98,29,1018.32,50.4,0
"2022-05-03 07:08:54+00",7.0,8.0,,,277,122,19,1018.27,50.5,0
"2022-05-03 07:13:54+00",7.6,9.6,,,314,160,15,1018.31,50.5,0
"2022-05-03 07:18:54+00",8.1,10.1,,,339,158,25,1018.34,50.6,0
"2022-05-03 07:23:54+00",8.2,9.2,,,326,162,8,1018.41,50.6,0
"2022-05-03 07:28:54+00",8.1,9.1,,,343,145,27,1018.6,50.8,0
"2022-05-03 07:33:54+00",8.5,10.5,,,358,135,29,1018.54,50.9,0
"2022-05-03 07:38:54+00",9.3,11.3,,,401,154,31,1018.57,51,0
"2022-05-03 07:43:54+00",11.5,12.5,,,488,210,27,1018.58,51.1,0
"2022-05-03 07:48:54+00",10.1,12.1,,,434,156,41,1018.55,51.1,0
"2022-05-03 07:53:54+00",13.1,15.1,,,550,271,26,1018.49,51.1,0
"2022-05-03 07:58:54+00",12.1,15.1,,,465,287,34,1018.44,51.2,0
"2022-05-03 08:03:54+00",13.9,15.9,,,569,296,27,1018.41,51.2,0
"2022-05-03 08:08:54+00",14.7,16.7,,,564,358,14,1018.4,51.2,0
"2022-05-03 08:13:54+00",15.2,16.2,,,561,377,24,1018.42,51.3,0
"2022-05-03 08:18:54+00",13.3,16.3,,,503,329,34,1018.53,51.3,0
"2022-05-03 08:23:54+00",12.8,14.8,,,488,330,38,1018.46,51.3,0
"2022-05-03 08:28:54+00",13.2,16.2,,,493,337,41,1018.5,51.3,0
"2022-05-03 08:33:54+00",11.3,14.3,,,422,282,34,1018.5,51.3,0
"2022-05-03 08:38:54+00",14.0,17.0,,,513,362,41,1018.5,51.4,0
"2022-05-03 08:43:54+00",10.5,13.5,,,403,247,30,1018.54,51.4,0
"2022-05-03 08:48:54+00",11.6,12.6,,,449,258,20,1018.54,51.4,0
"2022-05-03 08:53:54+00",10.7,11.7,,,397,253,22,1018.59,51.4,0
"2022-05-03 08:58:54+00",12.8,15.8,,,488,305,41,1018.52,51.4,0
"2022-05-03 09:03:54+00",12.3,15.3,,,405,334,33,1018.52,51.5,0
"2022-05-03 09:08:54+00",12.0,14.0,,,444,281,49,1018.43,51.5,0
"2022-05-03 09:13:54+00",14.0,16.0,,,531,357,27,1018.47,51.5,0
"2022-05-03 09:18:54+00",14.0,16.0,,,475,396,40,1018.45,51.4,0
"2022-05-03 09:23:54+00",14.8,16.8,,,336,532,4,1018.57,51.5,0
"2022-05-03 09:28:54+00",13.2,15.2,,,324,468,4,1018.56,51.6,0
"2022-05-03 09:33:54+00",11.4,13.4,,,442,246,42,1018.69,51.8,0
"2022-05-03 09:38:54+00",12.8,15.8,,,500,302,27,1018.81,51.7,0
"2022-05-03 09:43:54+00",13.9,14.9,,,579,279,22,1018.81,51.6,0
"2022-05-03 09:48:54+00",13.5,16.5,,,499,361,20,1018.81,51.5,0
"2022-05-03 09:53:54+00",12.0,14.0,,,451,292,31,1018.83,51.5,0
"2022-05-03 09:58:54+00",10.1,12.1,,,377,253,35,1018.88,51.5,0
"2022-05-03 10:03:54+00",12.8,14.8,,,492,301,20,1018.74,51.5,0
"2022-05-03 10:08:54+00",13.1,15.1,,,474,339,30,1018.9,51.5,0
"2022-05-03 10:13:54+00",13.9,15.9,,,518,340,24,1018.95,51.5,0
"2022-05-03 10:18:54+00",15.7,17.7,,,589,373,22,1018.96,51.4,0
"2022-05-03 10:23:54+00",14.8,17.8,,,475,440,31,1019.06,51.4,0
"2022-05-03 10:28:54+00",15.5,18.5,,,540,455,22,1019.11,51.4,0
"2022-05-03 10:33:54+00",11.4,13.4,,,466,231,24,1019.26,51.4,0
"2022-05-03 10:38:54+00",12.2,13.2,,,489,261,20,1019.26,51.5,0
"2022-05-03 10:43:54+00",11.3,14.3,,,469,233,36,1019.42,51.5,0
"2022-05-03 10:48:54+00",11.6,12.6,,,352,355,20,1019.46,51.5,0
"2022-05-03 10:53:54+00",11.7,12.7,,,439,282,31,1019.52,51.5,0
"2022-05-03 10:58:54+00",13.1,16.1,,,495,343,26,1019.45,51.6,0
"2022-05-03 11:03:54+00",16.7,18.7,,,572,478,30,1019.43,51.5,0
"2022-05-03 11:08:54+00",14.2,16.2,,,428,449,24,1019.47,51.5,0
"2022-05-03 11:13:54+00",15.1,17.1,,,549,406,33,1019.46,51.7,0
"2022-05-03 11:18:54+00",14.2,16.2,,,555,318,29,1019.43,51.6,0.1
"2022-05-03 11:23:54+00",13.9,15.9,,,537,318,46,1019.49,51.7,0.3
"2022-05-03 11:28:54+00",14.0,15.0,,,510,359,38,1019.59,51.9,0.6
"2022-05-03 11:33:54+00",14.9,17.9,,,574,366,35,1019.65,52.1,2.3
"2022-05-03 11:38:54+00",15.8,16.8,,,518,468,10,1019.73,52.2,14.6
"2022-05-03 11:43:54+00",13.1,14.1,,,464,357,34,1019.64,52.6,6.3
"2022-05-03 11:48:54+00",11.7,13.7,,,477,252,48,1019.64,53.5,0.4
"2022-05-03 11:53:54+00",12.2,14.2,,,514,259,50,1019.66,54.3,1.4
"2022-05-03 11:58:54+00",12.7,15.7,,,437,358,35,1019.86,54.7,6.2
"2022-05-03 12:03:54+00",13.5,15.5,,,533,316,18,1019.86,55.4,13.2
"2022-05-03 12:08:54+00",11.7,12.7,,,474,257,56,1019.85,55.9,28.4
"2022-05-03 12:13:54+00",12.2,14.2,,,507,249,42,1019.97,56.2,34.2
"2022-05-03 12:18:54+00",11.9,13.9,,,524,156,55,1020.16,56.3,39.1
"2022-05-03 12:23:54+00",12.0,15.0,,,492,213,42,1020.32,56.4,59.6
"2022-05-03 12:28:54+00",12.5,14.5,,,518,216,18,1020.41,56.4,44.6
"2022-05-03 12:33:54+00",10.3,13.3,,,439,163,88,1020.45,56.5,56.2
"2022-05-03 12:38:54+00",11.2,13.2,,,465,248,28,1020.55,57,42.2
"2022-05-03 12:43:54+00",12.7,14.7,,,526,261,27,1020.59,56.8,92.7
"2022-05-03 12:48:54+00",13.3,14.3,,,534,282,5,1020.71,56.4,50.2
"2022-05-03 12:53:54+00",12.7,14.7,,,498,320,23,1020.81,56.8,150.3
"2022-05-03 12:58:54+00",11.9,12.9,,,512,200,34,1020.9,57,83.8
"2022-05-03 13:03:54+00",13.2,15.2,,,579,151,41,1020.94,57.1,143.7
"2022-05-03 13:08:54+00",13.7,15.7,,,593,156,35,1020.98,56.8,83.9
"2022-05-03 13:13:54+00",14.9,16.9,,,669,141,42,1020.86,56.2,46.8
"2022-05-03 13:18:54+00",16.1,18.1,,,686,286,42,1020.85,55.4,58.7
"2022-05-03 13:23:54+00",14.5,15.5,,,503,401,24,1020.99,54.8,49.1
"2022-05-03 13:28:54+00",12.1,16.1,,,471,294,45,1021.15,54.4,45.2
"2022-05-03 13:33:54+00",13.2,17.2,,,514,301,49,1021.12,54.3,69.5
"2022-05-03 13:38:54+00",11.6,13.6,,,434,276,37,1021.12,54.3,91.9
"2022-05-03 13:43:54+00",12.4,14.4,,,450,334,23,1021.2,54.3,47.4
"2022-05-03 13:48:54+00",13.9,15.9,,,464,412,33,1021.07,54.3,81.2
"2022-05-03 13:53:54+00",12.7,13.7,,,487,298,19,1021.1,54.3,63.8
"2022-05-03 13:58:54+00",15.8,17.8,,,693,233,38,1021.01,54.2,67.5
"2022-05-03 14:03:54+00",12.9,14.9,,,507,286,33,1021.03,54.4,92.3
"2022-05-03 14:08:54+00",13.5,15.5,,,534,303,45,1021,54.5,88.4
"2022-05-03 14:13:54+00",12.4,14.4,,,498,260,76,1020.95,54.7,76.4
"2022-05-03 14:18:54+00",13.6,16.6,,,516,330,30,1021,54.7,75.2
"2022-05-03 14:23:54+00",14.3,16.3,,,609,214,22,1021.02,54.5,133.9
"2022-05-03 14:28:54+00",14.4,15.4,,,533,380,16,1020.97,54.8,155.3
"2022-05-03 14:33:54+00",15.0,18.0,,,544,395,46,1020.96,55.3,101.5
"2022-05-03 14:38:54+00",15.3,16.3,,,656,254,72,1020.93,55.6,162.4
"2022-05-03 14:43:54+00",15.2,17.2,,,574,372,24,1021,55.6,175.5
"2022-05-03 14:48:54+00",15.2,17.2,,,529,438,38,1021.02,55.6,203.5
"2022-05-03 14:53:54+00",15.5,17.5,,,634,315,28,1020.91,56.2,163.6
"2022-05-03 14:58:54+00",15.6,17.6,,,673,235,49,1020.95,56.8,287.4
"2022-05-03 15:03:54+00",15.6,17.6,,,652,332,14,1020.92,57.1,311.9
"2022-05-03 15:08:54+00",15.5,17.5,,,621,341,46,1020.88,57.6,208.6
"2022-05-03 15:13:54+00",14.8,16.8,,,569,355,12,1020.99,57.6,389.3
"2022-05-03 15:18:54+00",15.4,17.4,,,658,291,41,1021.04,58.1,369
"2022-05-03 15:23:54+00",14.7,16.7,,,618,232,56,1021.13,58.8,423.7
"2022-05-03 15:28:54+00",14.9,17.9,,,599,309,25,1021.15,59.3,273.8
"2022-05-03 15:33:54+00",16.0,18.0,,,661,318,36,1021.12,59,234.1
"2022-05-03 15:38:54+00",17.7,19.7,,,745,311,65,1021.12,58.9,360.3
"2022-05-03 15:43:54+00",18.5,19.5,,,814,183,45,1021.15,58.8,338.3
"2022-05-03 15:48:54+00",17.6,19.6,,,777,230,74,1021.29,59,458.6
"2022-05-03 15:53:54+00",15.7,18.7,,,654,270,33,1021.21,58.9,181.7
"2022-05-03 15:58:54+00",17.3,19.3,,,777,178,59,1021.22,58.6,279.1
"2022-05-03 16:03:54+00",17.9,20.9,,,795,198,54,1020.98,58.4,272.6
"2022-05-03 16:08:54+00",16.7,19.7,,,750,111,75,1021.12,58.4,172.6
"2022-05-03 16:13:54+00",17.5,19.5,,,749,336,48,1021.16,57.8,127.6
"2022-05-03 16:18:54+00",17.8,20.8,,,766,280,40,1021.18,57.5,168.3
"2022-05-03 16:23:54+00",17.2,20.2,,,765,131,60,1021.18,56.9,145.6
"2022-05-03 16:28:54+00",16.1,19.1,,,686,239,62,1021.2,56.3,155.2
"2022-05-03 16:33:54+00",16.5,18.5,,,734,149,35,1021.23,56,141.2
"2022-05-03 16:38:54+00",14.7,16.7,,,639,225,56,1021.24,56,108.7
"2022-05-03 16:43:54+00",15.5,17.5,,,701,117,55,1021.24,55.8,107.1
"2022-05-03 16:48:54+00",15.2,17.2,,,675,134,47,1021.33,55.6,103
"2022-05-03 16:53:54+00",16.5,18.5,,,725,133,21,1021.43,55.4,120.3
"2022-05-03 16:58:54+00",12.5,14.5,,,559,93,36,1021.57,55.4,117.6
"2022-05-03 17:03:54+00",12.9,14.9,,,566,122,96,1021.63,55.5,98.6
"2022-05-03 17:08:54+00",10.0,13.0,,,429,154,27,1021.61,55.9,403.6
"2022-05-03 17:13:54+00",12.2,15.2,,,534,120,31,1021.59,57,525
"2022-05-03 17:18:54+00",14.9,16.9,,,644,194,27,1021.5,57.9,425.2
"2022-05-03 17:23:54+00",16.5,19.5,,,717,242,52,1021.4,58.4,450
"2022-05-03 17:28:54+00",13.9,16.9,,,605,175,46,1021.43,58.6,473.6
"2022-05-03 17:33:54+00",13.7,15.7,,,615,73,18,1021.43,58.8,453.7
"2022-05-03 17:38:54+00",14.4,15.4,,,549,337,14,1021.35,58.7,223.2
"2022-05-03 17:43:54+00",14.1,15.1,,,603,278,24,1021.42,58.5,226.9
"2022-05-03 17:48:54+00",16.6,19.6,,,718,266,40,1021.27,58.3,245.1
"2022-05-03 17:53:54+00",16.3,19.3,,,724,230,52,1021.24,58,347
"2022-05-03 17:58:54+00",15.2,19.2,,,675,199,61,1021.17,57.8,249.1
"2022-05-03 18:03:54+00",13.9,16.9,,,620,175,87,1021.38,57.6,106.6
"2022-05-03 18:08:54+00",18.5,20.5,,,741,406,27,1020.85,57.3,224.5
"2022-05-03 18:13:54+00",18.2,20.2,,,761,343,22,1020.83,57.3,379.1
"2022-05-03 18:18:54+00",18.0,22.0,,,763,323,73,1020.88,58.2,521.5
"2022-05-03 18:23:54+00",18.1,21.1,,,693,420,82,1020.84,58.5,355
"2022-05-03 18:28:54+00",19.2,24.2,,,799,397,37,1020.62,58.7,450.5
"2022-05-03 18:33:54+00",18.5,20.5,,,785,316,54,1020.52,58.6,425.7
"2022-05-03 18:38:54+00",19.9,21.9,,,872,266,60,1020.52,58.9,371.3
"2022-05-03 18:43:54+00",16.6,18.6,,,709,294,75,1020.69,58.6,362.1
"2022-05-03 18:48:54+00",17.3,19.3,,,656,413,74,1020.77,58.4,218.4
"2022-05-03 18:53:54+00",16.4,17.4,,,700,265,46,1020.72,57.9,302.8
"2022-05-03 18:58:54+00",16.6,18.6,,,692,305,46,1020.6,58.6,321
"2022-05-03 19:03:54+00",15.4,18.4,,,662,201,93,1020.67,58.7,494.9
"2022-05-03 19:08:54+00",17.7,20.7,,,791,168,55,1020.56,59.3,478.5
"2022-05-03 19:13:54+00",18.3,20.3,,,765,313,41,1020.64,59.3,287.3
"2022-05-03 19:18:54+00",17.6,19.6,,,743,313,26,1020.7,58.7,302.5
"2022-05-03 19:23:54+00",18.5,21.5,,,794,319,24,1020.61,58.4,326.3
"2022-05-03 19:28:54+00",15.9,18.9,,,699,218,46,1020.56,58.7,443.9
"2022-05-03 19:33:54+00",16.3,20.3,,,731,112,87,1020.43,59,283.6
"2022-05-03 19:38:54+00",19.1,21.1,,,858,171,31,1020.34,59.2,389.5
"2022-05-03 19:43:54+00",17.5,19.5,,,764,291,19,1020.33,59.1,447.9
"2022-05-03 19:48:54+00",17.7,21.7,,,769,216,84,1020.25,59.1,172.3
"2022-05-03 19:53:54+00",17.0,19.0,,,750,277,67,1020.34,58.3,175.4
"2022-05-03 19:58:54+00",19.4,23.4,,,870,282,60,1020.17,58.3,331.9
"2022-05-03 20:03:54+00",16.4,20.4,,,721,156,56,1020.36,58.6,327.7
"2022-05-03 20:08:54+00",17.8,19.8,,,802,155,44,1020.4,58.3,170.3
"2022-05-03 20:13:54+00",15.6,17.6,,,689,142,58,1020.33,57.7,156.3
"2022-05-03 20:18:54+00",18.1,20.1,,,782,266,54,1020.31,57.3,140.9
"2022-05-03 20:23:54+00",20.2,23.2,,,888,274,82,1020.18,57.1,258.2
"2022-05-03 20:28:54+00",17.2,21.2,,,727,329,47,1020.08,57.1,359.6
"2022-05-03 20:33:54+00",19.3,22.3,,,859,222,59,1020.05,57.4,180.2
"2022-05-03 20:38:54+00",17.0,21.0,,,727,318,33,1020.2,56.8,162.7
"2022-05-03 20:43:54+00",15.8,17.8,,,678,299,70,1020.18,56.7,280.7
"2022-05-03 20:48:54+00",18.4,21.4,,,827,218,60,1020.09,56.9,220.3
"2022-05-03 20:53:54+00",17.2,20.2,,,754,215,104,1020.07,56.7,125.5
"2022-05-03 20:58:54+00",20.0,22.0,,,883,221,45,1019.96,56.1,103.5
"2022-05-03 21:03:54+00",17.0,20.0,,,715,300,46,1019.96,55.4,85.7
"2022-05-03 21:08:54+00",20.5,22.5,,,885,330,61,1019.91,55,76.5
"2022-05-03 21:13:54+00",18.8,21.8,,,808,368,48,1020.04,54.5,71.8
"2022-05-03 21:18:54+00",20.6,22.6,,,894,302,45,1020.09,54.3,57.6
"2022-05-03 21:23:54+00",19.1,22.1,,,843,251,71,1019.89,54.1,67.2
"2022-05-03 21:28:54+00",18.7,20.7,,,794,329,34,1019.87,54,31.6
"2022-05-03 21:33:54+00",18.1,21.1,,,741,366,57,1019.8,53.6,29.2
"2022-05-03 21:38:54+00",21.3,23.3,,,916,326,61,1019.74,53.5,79.4
"2022-05-03 21:43:54+00",16.5,19.5,,,681,318,59,1019.71,53.7,99.7
"2022-05-03 21:48:54+00",15.8,18.8,,,679,250,67,1019.73,53.9,39.4
"2022-05-03 21:53:54+00",17.6,19.6,,,709,375,33,1019.68,53.6,50.8
"2022-05-03 21:58:54+00",18.7,21.7,,,780,382,41,1019.7,53.6,62.5
"2022-05-03 22:03:54+00",16.7,18.7,,,694,323,30,1019.76,53.3,19.2
"2022-05-03 22:08:54+00",15.5,18.5,,,658,247,50,1019.85,53.4,60.8
"2022-05-03 22:13:54+00",17.7,21.7,,,780,210,51,1019.9,53.5,41.3
"2022-05-03 22:18:54+00",17.1,20.1,,,736,272,75,1019.74,53.5,15.6
"2022-05-03 22:23:54+00",17.9,20.9,,,779,275,47,1019.69,53.2,1.5
"2022-05-03 22:28:54+00",18.0,23.0,,,793,236,52,1019.64,52.9,0.2
"2022-05-03 22:33:54+00",19.4,21.4,,,839,320,59,1019.42,52.5,0
"2022-05-03 22:38:54+00",17.8,20.8,,,782,223,56,1019.33,52.2,0
"2022-05-03 22:43:54+00",17.2,19.2,,,737,308,44,1019.27,52.2,0
"2022-05-03 22:48:54+00",16.0,21.0,,,687,302,71,1019.26,52.1,0
"2022-05-03 22:53:54+00",16.1,20.1,,,635,358,63,1019.25,51.9,0
"2022-05-03 22:58:54+00",17.6,18.6,,,718,367,18,1019.36,51.6,0
"2022-05-03 23:03:54+00",16.6,18.6,,,661,394,35,1019.46,51.5,0
"2022-05-03 23:08:54+00",17.3,20.3,,,733,331,60,1019.24,51.4,0
"2022-05-03 23:13:54+00",17.7,22.7,,,737,318,44,1019.21,51.3,0
"2022-05-03 23:18:54+00",18.0,19.0,,,809,176,60,1019.27,51.2,0
"2022-05-03 23:23:54+00",17.1,21.1,,,750,254,60,1019.43,51.2,0
"2022-05-03 23:28:54+00",16.7,20.7,,,708,217,98,1019.32,51.2,0
"2022-05-03 23:33:54+00",17.5,19.5,,,760,271,20,1019.23,51.3,0
"2022-05-03 23:38:54+00",18.5,20.5,,,822,93,70,1019.08,51.1,0
"2022-05-03 23:43:54+00",20.5,22.5,,,920,169,63,1019.14,51.1,0
"2022-05-03 23:48:54+00",18.7,19.7,,,825,207,47,1019.14,51,0
"2022-05-03 23:53:54+00",18.5,20.5,,,848,128,56,1019.05,50.9,0
"2022-05-03 23:58:54+00",16.6,17.6,,,721,267,27,1019.07,50.7,0
